Location: Dugenta
(41.1333°N, 14.4500°E)
Time: 13:10:31
(UTC+00:00)

Cosmos 1992 Rocket - Pass Details

Date: 03 March 2021
Orbit: 759 x 765 km, 74.0° (Epoch: 20 April)

Event Time Altitude Azimuth Distance (km) Brightness Sun altitude
Rises 17:45:48 0° 196° (SSW) 3,215 7.4 -10.3°
Reaches altitude 10° 17:48:10 10° 196° (SSW) 2,293 6.7 -10.7°
Maximum altitude 17:53:23 86° 107° (ESE) 771 4.0 -11.7°
Drops below altitude 10° 17:58:37 10° 20° (NNE) 2,306 6.3 -12.7°
Sets 18:01:00 0° 20° (NNE) 3,235 7.1 -13.1°
